Regional Weather Roundup
Issued by NWS

Home | Current Version | Previous Version | Graphics & Text | Print | Product List | Glossary On
Versions: 1 2 3 4 5 6 7 8 9 10 11 12 13 14 15 16 17 18 19 20 21 22 23 24 25 26 27
000
ASUS45 KBOU 182207
RWRCO

WEATHER ROUNDUP FOR COLORADO
NATIONAL WEATHER SERVICE DENVER/BOULDER CO
300 PM MST SAT FEB 18 2017

NOTE: "FAIR" INDICATES FEW OR NO CLOUDS BELOW 12000 FEET WITH NO
SIGNIFICANT WEATHER AND/OR OBSTRUCTIONS TO VISIBILITY.

COZ001>005-013-030-031-182300-
...NORTHWEST COLORADO...

CITY           SKY/WX    TMP DP  RH WIND       PRES   REMARKS
CRAIG          CLOUDY    46  32  58 W14       29.75R
HAYDEN         FAIR      45  27  49 N5        29.75R
MEEKER         CLOUDY    47  30  51 SW8       29.75S
MOUNT WERNER   NOT AVBL
STEAMBOAT SPGS FAIR      45  29  54 W3        29.74S
WALDEN           N/A     41  27  56 NE3       29.76F
$$

COZ006>008-011-182300-
...WEST CENTRAL VALLEYS...

CITY           SKY/WX    TMP DP  RH WIND       PRES   REMARKS
GRAND JUNCTION CLOUDY    51  40  65 NW8       29.73F
MONTROSE       FAIR      54  32  43 NW9       29.71F
EAGLE          SUNNY     54  30  40 W6        29.72F
RIFLE          CLOUDY    54  33  45 W18       29.70F
DELTA          CLOUDY    56  35  45 W12       29.70F
NUCLA          FAIR      48  36  61 N7        29.77F
$$

COZ017>023-064>068-182300-
...SOUTHWEST COLORADO...

CITY           SKY/WX    TMP DP  RH WIND       PRES   REMARKS
DURANGO        FAIR      52  28  39 SE9       29.74S
CORTEZ         FAIR      55  30  38 S12       29.71F
PAGOSA SPRINGS PTSUNNY   49  20  31 SW3       29.76S
TELLURIDE      CLOUDY    40  28  60 W8        29.79R
WOLF CREEK PAS PTSUNNY   32  19  59 S14G22    29.93F WCI  22
$$

COZ009-010-012-014-032>034-037-058>063-182300-
...CENTRAL COLORADO...

CITY           SKY/WX    TMP DP  RH WIND       PRES   REMARKS
ASPEN          PTSUNNY   49  27  42 N9        29.70F
BUENA VISTA    FAIR      50  23  34 SE14G22   29.77F
COPPER MTN     NOT AVBL
BERTHOUD PASS  PTSUNNY   28  19  69 S17G31    29.90F WCI  16
COTTONWOOD PAS FAIR      45  25  45 E14G21    29.83S
GUNNISON       FAIR      36  27  69 E5        29.76F
KREMMLING      FAIR      55  27  33 CALM      29.73F
LEADVILLE      FAIR      36  24  62 S15       29.79F
MONARCH PASS   FAIR      34  21  60 S18       30.00S WCI  23
SALIDA         FAIR      53  24  32 S14G20    29.83F
SUNLIGHT       NOT AVBL
WILKERSON PASS FAIR      37  21  52 S3        29.90F
$$

COZ069>075-182300-
...SAN LUIS VALLEY/SANGRE DE CRISTO MOUNTAINS...

CITY           SKY/WX    TMP DP  RH WIND       PRES   REMARKS
ALAMOSA        FAIR      48  31  51 S5        29.78S
LA VETA PASS   FAIR      43  25  49 MISG      29.86F
SAGUACHE       FAIR      50  28  43 S9        29.79S
$$

COZ035-036-038>040-182300-
...NORTHERN COLORADO FRONT RANGE...

CITY           SKY/WX    TMP DP  RH WIND       PRES   REMARKS
DENVER INTL AP PTSUNNY   66  23  19 S22       29.64F
DMNS CITY PARK   N/A     65  20  18 NE8G16    29.63F
AURORA         PTSUNNY   65  23  20 S18G26    29.65S
FRONT RANGE AP NOT AVBL
ERIE MUNI ARPT FAIR      64  19  17 NE7       29.64S
BOULDER MUN AP FAIR      59  23  25 N7        29.65F
CENTENNIAL     PTSUNNY   64  21  19 S17G26    29.66F
BROOMFIELD     PTSUNNY   64  23  20 NE6       29.66F
FORT COLLINS   FAIR      62  22  21 CALM      29.67S
LONGMONT       FAIR      65  20  18 N6        29.67S
$$

COZ041-046-047-076>085-087-088-182300-
...PIKES PEAK/PALMER DIVIDE AND SOUTHERN FOOTHILLS...

CITY           SKY/WX    TMP DP  RH WIND       PRES   REMARKS
COLO. SPRINGS  PTSUNNY   58  21  24 SE13G24   29.73F
A. F. ACADEMY  FAIR      58  22  24 SE18G24   29.72S
SCHRIEVER AFB  FAIR      58  21  24 S14G24    29.74F
ELLICOTT       FAIR     N/A N/A N/A S16G24    29.73F
FALCON         FAIR      56  20  24 S16       29.77S
FORT CARSON    FAIR      58  23  25 SE12      29.71F
LIMON          FAIR      61  19  19 S17G28    29.72F
MONUMENT HILL  FAIR      52  23  32 S21G28    29.75S
TRINIDAD       FAIR      63  16  16 S21G28    29.68F
$$

COZ042>045-048>051-090-091-182300-
...NORTHEAST COLORADO...

CITY           SKY/WX    TMP DP  RH WIND       PRES   REMARKS
GREELEY ARPT   FAIR      59  21  23 E9        29.66F
AKRON          FAIR      64  21  19 S20       29.69F
BURLINGTON     FAIR      65  23  20 S21       29.73F
WRAY           NOT AVBL
STERLING       NOT AVBL
HOLYOKE        FAIR      66  27  22 S16G23    29.71F
FORT MORGAN    FAIR      63  21  19 SE15      29.67S
$$

COZ086-089-092>099-182300-
...SOUTHEAST COLORADO...

CITY           SKY/WX    TMP DP  RH WIND       PRES   REMARKS
PUEBLO         FAIR      64  24  21 SE15      29.66F
LA JUNTA       FAIR      67  22  18 E16       29.68F
LAMAR          FAIR      71  19  14 S14G21    29.69F
SPRINGFIELD      N/A     66  21  18 S18G24    29.73F
$$




USA.gov is the U.S. government's official web portal to all federal, state and local government web resources and services.